EW4785 Weather Reports


time (UTC)temp
C
wind
direction
speed
KPH
gust
KPH
rain 1hr
cm
rain 24hr
cm
rain mn
cm
humidity
%
barometer
mb
20260509191538 20 251 3.2 12.9 0.00 0.00 0.00 74 1010.8
20260509190037 20 185 1.6 6.4 0.00 0.00 0.00 74 1010.7
20260509184538 20 114 3.2 12.9 0.00 0.00 0.00 74 1010.9
20260509183036 20 103 4.8 11.3 0.00 0.00 0.00 73 1010.9
20260509181534 21 259 4.8 16.1 0.00 0.00 0.00 72 1011.1
20260509180033 20 183 4.8 14.5 0.00 0.00 0.00 73 1011.2
20260509174532 21 175 6.4 16.1 0.00 0.00 0.00 72 1011.4
20260509173033 20 182 4.8 16.1 0.00 0.00 0.00 75 1011.4
20260509171533 20 203 4.8 14.5 0.00 0.00 0.00 75 1011.6
20260509170028 20 120 4.8 14.5 0.00 0.00 0.00 72 1011.8
20260509164526 20 154 6.4 16.1 0.00 0.00 0.00 70 1011.9
20260509163024 20 189 4.8 14.5 0.00 0.00 0.00 69 1012.1
20260509161523 21 174 4.8 14.5 0.00 0.00 0.00 68 1012.3
20260509160024 20 159 4.8 17.7 0.00 0.00 0.00 69 1012.2
20260509154521 20 222 6.4 14.5 0.00 0.00 0.00 67 1012.4
20260509153026 20 173 4.8 19.3 0.00 0.00 0.00 69 1012.5
20260509151516 19 188 3.2 14.5 0.00 0.00 0.00 70 1012.3
20260509150018 19 170 3.2 11.3 0.00 0.00 0.00 71 1012.3
20260509144513 18 117 1.6 16.1 0.00 0.00 0.00 72 1012.5
20260509143016 18 232 1.6 9.7 0.00 0.00 0.00 75 1012.8
20260509141503 17 184 1.6 9.7 0.00 0.00 0.00 78 1013.2
20260509140113 16 132 1.6 11.3 0.00 0.00 0.00 81 1013.2
20260509134558 16 215 1.6 11.3 0.00 0.00 0.00 80 1013.9
20260509133102 15 163 4.8 12.9 0.00 0.00 0.00 82 1014.0
20260509131557 14 144 4.8 11.3 0.00 0.00 0.00 86 1014.0
20260509130057 13 152 3.2 9.7 0.00 0.00 0.00 88 1014.2
20260509124547 13 173 0.0 4.8 0.00 0.00 0.00 91 1014.0
20260509123044 12 167 0.0 4.8 0.00 0.00 0.00 92 1013.9
20260509121556 12 214 0.0 8.0 0.00 0.00 0.00 94 1013.8
20260509120038 11 197 0.0 4.8 0.00 0.00 0.00 95 1013.4
20260509114536 10 197 0.0 3.2 0.00 0.00 0.00 96 1013.4
20260509113035 10 197 0.0 3.2 0.00 0.00 0.00 96 1013.9
20260509111535 9 197 0.0 0.0 0.00 0.00 0.00 96 1013.8
20260509110033 8 197 0.0 0.0 0.00 0.00 0.00 95 1013.4
20260509104533 8 197 0.0 1.6 0.00 0.00 0.00 95 1013.2
20260509103035 8 197 0.0 1.6 0.00 0.00 0.00 94 1013.2
20260509101531 8 197 0.0 1.6 0.00 0.00 0.00 93 1012.8
20260509100031 8 197 0.0 0.0 0.00 0.00 0.00 93 1012.9
20260509094525 8 197 0.0 0.0 0.00 0.00 0.00 92 1012.7
20260509093023 9 197 0.0 0.0 0.00 0.00 0.00 92 1012.9
20260509091521 9 197 0.0 0.0 0.00 0.00 0.00 91 1013.2
20260509090019 10 197 0.0 0.0 0.00 0.00 0.00 90 1012.9
20260509084520 10 197 0.0 0.0 0.00 0.00 0.00 91 1013.1
20260509083015 10 197 0.0 0.0 0.00 0.00 0.00 89 1013.2
20260509081513 10 197 0.0 0.0 0.00 0.00 0.00 88 1013.4
20260509080011 10 197 0.0 3.2 0.00 0.00 0.00 86 1013.5
20260509074509 10 197 0.0 1.6 0.00 0.00 0.00 86 1013.6
20260509073007 10 197 0.0 3.2 0.00 0.00 0.00 84 1013.5
20260509071504 11 197 0.0 3.2 0.00 0.00 0.00 82 1013.6
20260509070004 11 197 0.0 3.2 0.00 0.00 0.00 81 1013.8
20260509064503 11 197 0.0 1.6 0.00 0.00 0.00 80 1013.6
20260509063111 11 197 0.0 3.2 0.00 0.00 0.00 80 1014.0
20260509061558 11 197 0.0 3.2 0.00 0.00 0.00 80 1014.4
20260509054611 11 197 0.0 1.6 0.00 0.00 0.00 79 1014.6
20260509053132 11 197 0.0 1.6 0.00 0.00 0.00 79 1014.7
20260509051551 11 197 0.0 1.6 0.00 0.00 0.00 79 1015.1
20260509050051 11 197 0.0 0.0 0.00 0.00 0.00 78 1015.3
20260509044551 11 197 0.0 0.0 0.00 0.00 0.00 78 1015.4
20260509043104 11 197 0.0 1.6 0.00 0.00 0.00 80 1015.2
20260509041558 11 197 0.0 0.0 0.00 0.00 0.00 81 1015.1
20260509040050 11 197 0.0 0.0 0.00 0.00 0.00 80 1014.9
20260509034559 11 197 0.0 0.0 0.00 0.00 0.00 81 1015.2
20260509033042 11 197 0.0 0.0 0.00 0.00 0.00 79 1015.1
20260509031540 11 197 0.0 0.0 0.00 0.00 0.00 76 1015.1
20260509030040 11 197 0.0 0.0 0.00 0.00 0.00 76 1015.3
20260509024540 11 197 0.0 0.0 0.00 0.00 0.00 76 1015.2
20260509023039 11 197 0.0 0.0 0.00 0.00 0.00 76 1015.4
20260509021539 12 197 0.0 0.0 0.00 0.00 0.00 78 1015.6
20260509020050 12 197 0.0 0.0 0.00 0.00 0.00 77 1015.5
20260509014537 12 197 0.0 0.0 0.00 0.00 0.00 77 1015.5
20260509013047 12 197 0.0 0.0 0.00 0.00 0.00 74 1015.3
20260509011537 13 197 0.0 0.0 0.00 0.00 0.00 73 1015.2
20260509010049 13 197 0.0 0.0 0.00 0.00 0.00 71 1015.2
20260509004535 14 197 0.0 0.0 0.00 0.00 0.00 69 1015.1
20260509003035 15 197 0.0 0.0 0.00 0.00 0.00 66 1015.0
20260509001534 15 197 0.0 0.0 0.00 0.00 0.00 61 1014.8
20260509000034 16 197 0.0 0.0 0.00 0.00 0.00 58 1014.8
20260508234536 17 197 0.0 0.0 0.00 0.00 0.00 53 1014.8
20260508233033 18 196 0.0 0.0 0.00 0.00 0.00 51 1014.9
20260508231532 18 196 0.0 4.8 0.00 0.00 0.00 44 1015.1
20260508230044 19 177 1.6 6.4 0.00 0.00 0.00 42 1014.9
20260508224538 19 183 1.6 8.0 0.00 0.00 0.00 40 1014.7
20260508223036 20 161 1.6 8.0 0.00 0.00 0.00 39 1014.9
20260508221542 20 200 1.6 6.4 0.00 0.00 0.00 39 1014.7
20260508220033 20 194 1.6 6.4 0.00 0.00 0.00 39 1014.5
20260508214530 20 170 1.6 8.0 0.00 0.08 0.00 37 1014.7
20260508213029 20 199 1.6 8.0 0.00 0.08 0.00 40 1014.8
20260508211528 20 240 1.6 6.4 0.00 0.08 0.00 37 1014.7
20260508210029 20 199 0.0 6.4 0.00 0.08 0.00 37 1014.9
20260508204528 20 180 1.6 11.3 0.00 0.15 0.00 33 1015.0
20260508203027 21 297 0.0 12.9 0.00 0.15 0.00 37 1015.3
20260508201528 21 147 1.6 9.7 0.00 0.15 0.00 36 1015.4
20260508200026 21 111 3.2 11.3 0.00 0.15 0.00 35 1015.4
20260508194526 21 238 1.6 6.4 0.00 0.15 0.00 34 1015.3
20260508193024 21 171 1.6 8.0 0.00 0.15 0.00 34 1015.8